Lid_Strength_Index
12 11 11 10 10 10 10 10 10 10 10 9 9 9 9 9 8 8 7 7 7 8 8 8 8 9 9 9 7 7 7 8
11 11 10 10 10 10 10 10 10 9 9 9 9 9 9 9 8 8 8 7 7 8 8 8 8 9 9 9 9 8 8 8
11 11 11 11 11 10 10 10 10 9 9 9 9 8 8 8 8 8 8 8 7 8 8 8 8 8 9 9 9 9 8 9
11 11 11 11 11 11 10 10 10 9 10 10 10 9 9 9 8 8 8 8 8 7 7 7 8 8 8 9 9 8 8 9
11 11 11 11 11 10 10 11 11 11 10 10 10 10 9 9 8 8 8 8 8 7 7 7 7 8 8 8 8 8 8 9
12 11 11 11 11 10 11 11 11 11 11 11 10 10 10 10 9 9 9 9 9 9 9 9 8 8 9 9 8 9 9 9
11 11 11 11 11 11 11 11 12 12 12 11 11 12 12 12 11 11 11 10 10 10 10 10 9 8 7 7 9 9 9 9
11 11 12 12 11 12 12 12 12 13 12 13 13 13 13 13 13 13 12 11 11 11 11 11 10 8 8 8 8 9 9 10
11 12 12 12 13 13 13 13 14 14 14 14 14 14 14 14 14 13 13 13 12 12 11 11 10 8 8 8 9 9 9 9
12 12 13 13 13 14 14 14 15 15 15 14 14 15 15 15 15 14 14 14 13 12 12 12 11 9 8 8 9 10 10 10
13 14 14 14 14 15 15 15 16 16 15 15 15 15 16 16 15 15 14 14 13 13 13 12 12 10 9 8 10 10 10 10
15 15 15 15 15 16 16 17 16 16 16 16 16 17 16 16 16 15 15 15 15 14 13 13 12 11 9 8 9 10 10 10
16 16 16 16 16 17 18 17 18 18 18 19 18 17 17 17 17 16 16 16 16 15 15 13 12 11 9 8 8 7 9 9
17 17 17 17 18 19 19 19 19 20 21 20 19 19 18 19 18 18 17 17 16 16 15 14 12 11 9 8 8 7 8 8
19 19 19 19 19 20 20 20 22 22 22 21 21 21 20 19 19 19 18 17 17 16 15 14 12 10 9 9 9 8 7 7
21 21 21 21 21 22 21 22 23 23 23 22 22 23 22 21 20 19 17 16 16 15 13 13 13 10 8 7 7 8 8 7
22 23 23 24 24 24 24 24 25 25 24 24 24 24 23 22 22 18 16 14 12 11 11 11 9 8 7 6 6 6 5 8
25 25 26 26 27 27 26 27 27 27 26 25 25 25 24 23 22 22 19 14 13 12 11 9 8 8 7 7 6 6 6 8
28 29 30 30 29 28 28 29 28 28 27 26 25 25 24 23 22 21 20 20 18 14 12 10 9 9 8 7 7 7 7 8
32 32 33 32 30 29 30 29 29 28 27 26 25 24 23 22 21 20 19 18 18 16 14 13 11 9 9 8 10 9 9 9